Home   Weather   Mali i Kaçivelit   Past weeks
Flag for Albania

Past Weather in Mali i Kaçivelit, Albania — Yesterday and Last 2 Weeks

Now
95 °F

Scattered clouds.


Feels Like: 95 °F
Forecast: 93 / 67 °F
Wind: 13 mph from East

Location: Tirana Airport

Current Time: Jun 26, 2019 at 4:13:33 pm

Latest Report: Jun 26, 2019 at 3:20 pm


Visibility: N/A

Pressure: 30.04 "Hg

Humidity: 32%

Dew Point: 61 °F

Location of Mali i KaçivelitLocation

Past Weather in Mali i Kaçivelit — Graph

°F

Mali i Kaçivelit Temperature Yesterday

Maximum temperature yesterday: 95 °F (at 3:50 pm)
Minimum temperature yesterday: 63 °F (at 4:20 am)
Average temperature yesterday: 80 °F

High & Low Weather Summary for the Past Weeks

 TemperatureHumidityPressure
High97 °F (Jun 15, 1:20 pm)100% (Jun 25, 5:20 am)30.07 "Hg (Jun 25, 5:20 am)
Low63 °F (Jun 14, 3:50 am)32% (Jun 26, 2:20 pm)29.83 "Hg (Jun 11, 3:20 pm)
Average79 °F70%29.94 "Hg
* Reported Jun 11 3:20 pm — Jun 26 3:20 pm, Mali i Kaçivelit. Weather by CustomWeather, © 2019

Note: Actual official high and low records may vary slightly from our data, if they occured in-between our weather recording intervals... More about our weather records

Advertising

Mali i Kaçivelit Weather History for the Previous 24 Hours

Scroll right to see more
 ConditionsComfort  
Time TempWeatherWind HumidityBarometerVisibility
3:20 pm
Wed, Jun 26
95 °FScattered clouds.13 mph32%30.04 "HgN/A
2:50 pm95 °FPassing clouds.13 mph32%30.04 "HgN/A
2:20 pm97 °FPassing clouds.9 mph32%30.04 "HgN/A
1:50 pm95 °FPassing clouds.8 mph34%30.04 "HgN/A
1:20 pm95 °FPassing clouds.10 mph34%30.04 "HgN/A
12:50 pm93 °FPassing clouds.8 mph34%30.04 "HgN/A
12:20 pm93 °FPassing clouds.9 mph34%30.04 "HgN/A
11:50 am93 °FPassing clouds.6 mph39%30.07 "HgN/A
11:20 am91 °FPassing clouds.3 mph38%30.07 "HgN/A
10:50 am91 °FPassing clouds.5 mph41%30.07 "HgN/A
10:20 am88 °FPassing clouds.3 mph46%30.07 "HgN/A
9:50 am88 °FSunny.2 mph46%30.07 "Hg10 mi
9:20 am86 °FPassing clouds.5 mph49%30.07 "HgN/A
8:50 am84 °FPassing clouds.5 mph51%30.04 "HgN/A
8:20 am84 °FPassing clouds.3 mph51%30.04 "HgN/A
7:50 am81 °FPassing clouds.3 mph62%30.04 "HgN/A
7:20 am77 °FSunny.1 mph74%30.04 "Hg10 mi
6:50 am73 °FSunny.No wind78%30.04 "Hg10 mi
6:20 am72 °FSunny.1 mph78%30.04 "Hg10 mi
5:50 am70 °FSunny.2 mph83%30.04 "Hg10 mi
5:20 am70 °FClear.2 mph83%30.04 "HgN/A
4:50 am68 °FPassing clouds.5 mph83%30.04 "HgN/A
4:20 am70 °FClear.1 mph78%30.04 "Hg10 mi
3:50 am72 °FClear.1 mph73%30.04 "Hg10 mi
3:20 am72 °FClear.2 mph78%30.04 "Hg10 mi
2:50 am70 °FClear.2 mph83%30.04 "Hg10 mi
2:20 am72 °FClear.2 mph78%30.04 "Hg10 mi
1:50 am73 °FClear.5 mph74%30.04 "Hg10 mi
1:20 am73 °FClear.1 mph74%30.04 "Hg10 mi
12:50 am77 °FClear.1 mph69%30.04 "Hg10 mi
12:20 am75 °FClear.1 mph69%30.04 "Hg10 mi
11:50 pm
Tue, Jun 25
77 °FClear.1 mph61%30.04 "Hg10 mi
11:20 pm79 °FClear.2 mph61%30.04 "Hg10 mi
10:50 pm75 °FClear.2 mph69%30.04 "Hg10 mi
10:20 pm81 °FPassing clouds.3 mph54%30.04 "HgN/A
9:50 pm79 °FClear.6 mph61%30.04 "Hg10 mi
9:20 pm81 °FClear.3 mph58%30.04 "Hg10 mi
8:50 pm79 °FClear.6 mph61%30.01 "Hg10 mi
8:20 pm81 °FClear.8 mph54%30.01 "Hg10 mi
7:50 pm86 °FSunny.8 mph49%30.01 "Hg10 mi
7:20 pm90 °FSunny.8 mph46%30.01 "Hg10 mi
6:50 pm91 °FSunny.7 mph46%29.98 "Hg10 mi
6:20 pm90 °FSunny.9 mph46%29.98 "Hg10 mi
5:50 pm93 °FSunny.8 mph44%29.98 "Hg10 mi
5:20 pm95 °FPassing clouds.7 mph39%29.98 "HgN/A
4:50 pm95 °FPassing clouds.5 mph39%29.98 "HgN/A
4:20 pm95 °FPassing clouds.3 mph36%29.98 "HgN/A
Weather by CustomWeather, © 2019

See weather overview